[Date Prev][Date Next][Thread Prev][Thread Next] - [Date Index][Thread Index][Author Index]

2 Line ISS Keps 5-1



ISS
1 25544U 98067A   05121.34087191  .00008138  00000-0  66389-4 0  3688
2 25544 051.6441 140.7710 0007890 068.6649 057.7698 15.71637007368316
----
Via the sarex mailing list at AMSAT.ORG courtesy of AMSAT-NA.
To unsubscribe, send "unsubscribe sarex" to Majordomo@amsat.org



AMSAT Top AMSAT Home